This is the latest recevied weather packets stored in our database for station/object DG1ABU-11. If no packets are shown the sender has not sent any weather packets the latest 10 day(s).
| Time | Temp. | Humidity | Pressure | Rain* | Wind** | Luminosity | Snow |
|---|---|---|---|---|---|---|---|
| 1777535223 | 12.22° C | 34% | 1033.7 hPa | - | - | - | - |
| 1777534323 | 11.11° C | 34% | 1033.5 hPa | - | - | - | - |
| 1777533423 | 10° C | 35% | 1033.5 hPa | - | - | - | - |
| 1777532523 | 8.89° C | 36% | 1033.4 hPa | - | - | - | - |
| 1777531623 | 8.33° C | 37% | 1033.6 hPa | - | - | - | - |
| 1777530723 | 7.22° C | 37% | 1033.6 hPa | - | - | - | - |
| 1777529823 | 6.11° C | 38% | 1033.5 hPa | - | - | - | - |
| 1777528923 | 5.56° C | 39% | 1033.5 hPa | - | - | - | - |
| 1777528023 | 5° C | 39% | 1033.4 hPa | - | - | - | - |
| 1777527123 | 4.44° C | 40% | 1033.4 hPa | - | - | - | - |
| 1777526223 | 4.44° C | 40% | 1033.4 hPa | - | - | - | - |
| 1777525323 | 3.89° C | 40% | 1033.2 hPa | - | - | - | - |
| 1777524423 | 3.89° C | 40% | 1033 hPa | - | - | - | - |
| 1777523522 | 4.44° C | 40% | 1032.8 hPa | - | - | - | - |
| 1777522622 | 4.44° C | 39% | 1032.7 hPa | - | - | - | - |
| 1777521722 | 4.44° C | 39% | 1032.8 hPa | - | - | - | - |
| 1777520822 | 4.44° C | 39% | 1032.7 hPa | - | - | - | - |
| 1777519922 | 5° C | 39% | 1032.6 hPa | - | - | - | - |
| 1777519022 | 5° C | 39% | 1032.6 hPa | - | - | - | - |
| 1777518122 | 5° C | 39% | 1032.5 hPa | - | - | - | - |
| 1777517222 | 5.56° C | 38% | 1032.5 hPa | - | - | - | - |
| 1777516322 | 5.56° C | 38% | 1032.5 hPa | - | - | - | - |
| 1777515422 | 6.11° C | 37% | 1032.5 hPa | - | - | - | - |
| 1777514522 | 6.11° C | 38% | 1032.5 hPa | - | - | - | - |
| 1777513622 | 6.11° C | 37% | 1032.4 hPa | - | - | - | - |
* Rain since midnight (hover to see other rain measurements)
** Current wind speed in m/s (hover to see current wind gust speed)